Location: Gombori
(14.9797°N, 2.9419°W)
Time: 00:44:45
(UTC+00:00)

Cosmos 2150 Rocket - Pass Details

Date: 05 December 2021
Orbit: 748 x 808 km, 74.0° (Epoch: 23 January)

Event Time Altitude Azimuth Distance (km) Brightness Sun altitude
Rises 19:13:27 0° 357° (N) 3,214 7.1 -21.7°
Enters shadow 19:13:59 - 358° (N) 3,013 6.9 -21.9°
Exits shadow 19:26:51 - 150° (SSE) 2,684 6.7 -24.8°
Sets 19:28:23 0° 154° (SSE) 3,269 7.2 -25.2°
